Weather History for Naples, FL

Change the Weather History Date:

Sunday, July 28, 2013

  Actual Average Record
Temperature  
Mean Temperature 84 °F 83 °F  
Max Temperature 90 °F 91 °F 98 °F (1996)
Min Temperature 78 °F 75 °F 68 °F (1976)
Degree Days  
Heating Degree Days 0 0  
Month to date heating degree days 0 0  
Since 1 June heating degree days 0 0  
Since 1 July heating degree days 0 0  
Cooling Degree Days 19 18  
Month to date cooling degree days 474 504  
Year to date cooling degree days 2072 2039  
Since 1 June cooling degree days 968 1011  
Growing Degree Days 34 (Base 50)    
Moisture  
Dew Point 74 °F    
Average Humidity 75    
Maximum Humidity 91    
Minimum Humidity 59    
Precipitation  
Precipitation 0.00 in 0.20 in 2.11 in (1945)
Month to date precipitation 8.78 6.66  
Year to date precipitation 27.88 27.33  
Snow  
Snow 0.00 in - - ()
Month to date snowfall 0.0  
Since 1 June snowfall 0.0  
Since 1 July snowfall 0.0  
Snow Depth 0.00 in    
Sea Level Pressure  
Sea Level Pressure 30.01 in    
Wind  
Wind Speed 4 mph (SW)    
Max Wind Speed 14 mph    
Max Gust Speed 17 mph    
Visibility 10 miles    
Events      
T = Trace of Precipitation, MM = Missing Value Source: NWS Daily Summary

Daily Weather History Graph

Daily Weather History Graph

Search for Another Location

Airport:

Trip Planner

Search our weather history database for the weather conditions in past years. The results will help you decide how hot, cold, wet, or windy it might be!

Date:

Astronomy

Jul. 28, 2013 Rise Set
Actual Time 6:50 AM EDT 8:15 PM EDT
Civil Twilight 6:25 AM EDT 8:40 PM EDT
Nautical Twilight 5:56 AM EDT 9:10 PM EDT
Astronomical Twilight 5:25 AM EDT 9:41 PM EDT
Moon No Moon Rise 12:47 PM EDT (7/28)
Length of Visible Light 14h 15m
Length of Day
13h 25m
Waning Gibbous, 61% of the Moon is Illuminated
Jul 28
Waning Gibbous
Jul 29
Last Quarter
Aug 6
New
Aug 14
First Quarter
Aug 20
Full

Hourly Weather History & Observations

Time (EDT) Temp. Heat Index Dew Point Humidity Pressure Visibility Wind Dir Wind Speed Gust Speed Precip Events Conditions
12:53 AM 82.0 °F 88.6 °F 75.0 °F 79% 29.99 in 10.0 mi Calm Calm - N/A   Clear
1:53 AM 82.0 °F 88.6 °F 75.0 °F 79% 29.98 in 10.0 mi Calm Calm - N/A   Partly Cloudy
2:53 AM 80.1 °F 85.1 °F 75.0 °F 85% 29.96 in 10.0 mi Calm Calm - N/A   Clear
3:53 AM 81.0 °F 86.2 °F 73.9 °F 79% 29.96 in 10.0 mi Calm Calm - N/A   Clear
4:53 AM 79.0 °F - 75.0 °F 88% 29.96 in 9.0 mi Calm Calm - N/A   Partly Cloudy
5:53 AM 79.0 °F - 75.9 °F 90% 29.97 in 8.0 mi Calm Calm - N/A   Partly Cloudy
6:53 AM 78.1 °F - 75.9 °F 93% 29.98 in 7.0 mi Calm Calm - N/A   Clear
7:53 AM 80.1 °F 85.4 °F 75.9 °F 87% 30.00 in 7.0 mi Calm Calm - N/A   Clear
8:53 AM 84.0 °F 91.2 °F 73.9 °F 72% 30.01 in 10.0 mi Calm Calm - N/A   Clear
9:53 AM 87.1 °F 96.3 °F 75.0 °F 67% 30.02 in 10.0 mi Calm Calm - N/A   Clear
10:53 AM 86.0 °F 93.0 °F 73.0 °F 65% 30.03 in 10.0 mi Variable 3.5 mph - N/A   Scattered Clouds
11:53 AM 88.0 °F 97.5 °F 75.0 °F 65% 30.04 in 10.0 mi WSW 5.8 mph - N/A   Scattered Clouds
12:53 PM 88.0 °F 97.5 °F 75.0 °F 65% 30.03 in 10.0 mi SSW 6.9 mph - N/A   Scattered Clouds
1:53 PM 88.0 °F 96.5 °F 73.9 °F 63% 30.03 in 10.0 mi SW 8.1 mph - N/A   Scattered Clouds
2:53 PM 89.1 °F 97.0 °F 73.0 °F 59% 30.01 in 10.0 mi SW 11.5 mph - N/A   Clear
3:53 PM 88.0 °F 95.6 °F 73.0 °F 61% 30.00 in 10.0 mi WSW 10.4 mph - N/A   Clear
4:53 PM 88.0 °F 94.7 °F 72.0 °F 59% 30.01 in 10.0 mi WSW 8.1 mph - N/A   Clear
5:53 PM 88.0 °F 95.6 °F 73.0 °F 61% 30.01 in 10.0 mi WNW 8.1 mph - N/A   Clear
6:53 PM 87.1 °F 94.5 °F 73.0 °F 63% 30.01 in 10.0 mi WSW 5.8 mph - N/A   Clear
7:53 PM 86.0 °F 92.2 °F 72.0 °F 63% 30.03 in 10.0 mi West 5.8 mph - N/A   Clear
8:53 PM 84.9 °F 90.7 °F 72.0 °F 65% 30.05 in 10.0 mi Calm Calm - N/A   Clear
9:53 PM 84.0 °F 90.2 °F 73.0 °F 69% 30.06 in 10.0 mi Calm Calm - N/A   Clear
10:53 PM 82.0 °F 87.9 °F 73.9 °F 76% 30.06 in 10.0 mi ESE 4.6 mph - N/A   Clear
11:53 PM 80.1 °F 85.1 °F 75.0 °F 85% 30.06 in 10.0 mi East 3.5 mph - N/A   Clear